444P/WISE-PanSTARRS (2022)

Japanese version
Home page
Updated on August 6, 2022

---------------------------------------------------------------------

* Profile

Designation 444P/2022 C4

* Pictures

* Orbital Elements

Epoch 2022 Aug. 9.0 TT = JDT 2459800.5                                          
T 2022 July 10.38501 TT                                 Rudenko                 
q   1.4731523            (2000.0)            P               Q                  
n   0.15530970     Peri.  170.89709     -0.15680694     +0.91300436             
a   3.4277068      Node    89.40484     -0.92818340     -0.00593468             
e   0.5702222      Incl.   22.12507     -0.33747172     -0.40790663             
P   6.35                                                                        
From 259 observations 2003 Apr. 26-2022 June 20, mean residual 0".2.            

* Finding Charts

* Magnitudes Graph

        m1 = 16.0 + 5 log d + 10.0 log r

---------------------------------------------------------------------

The orbital elements are published on M.P.E.C. 2022-M81.
The charts are made with StellaNavigator Ver.10 (AstroArts).
The magnitudes graphs are made with Comet for Windows.

---------------------------------------------------------------------

Copyright(C) Seiichi Yoshida (comet@aerith.net). All rights reserved.